UAE5CL NZCH-YSSY

Flight info

Callsign UAE5CL
Flight time N/A
Altitude 40000
Route VANDA N750 PLUGA DCT RIKNI N774 MARLN
Aircraft A388/J-SADE2E3FGHIJ3J4J5M1RWXY/LB1D1

Departure

Time 2026-05-06 02:41
Airport Christchurch International Airport (NZCH)

Arrival

Time N/A
Airport Sydney Kingsford Smith International Airport (YSSY)
Time Latitude Longitude Altitude Speed Heading
2026-05-06 02:22 -43.48663 172.54150 114 ft 0 kts 226°
2026-05-06 02:31 -43.48658 172.54156 110 ft 4 kts 225°
2026-05-06 02:31 -43.48639 172.54183 109 ft 3 kts 225°
2026-05-06 02:31 -43.48625 172.54206 110 ft 4 kts 245°
2026-05-06 02:31 -43.48620 172.54239 109 ft 4 kts 283°
2026-05-06 02:32 -43.48630 172.54273 109 ft 4 kts 305°
2026-05-06 02:32 -43.48637 172.54286 109 ft 0 kts 310°
2026-05-06 02:35 -43.48622 172.54260 109 ft 6 kts 308°
2026-05-06 02:35 -43.48584 172.54198 109 ft 11 kts 311°
2026-05-06 02:35 -43.48528 172.54109 109 ft 14 kts 310°
2026-05-06 02:36 -43.48514 172.53995 110 ft 13 kts 235°
2026-05-06 02:36 -43.48590 172.53896 111 ft 17 kts 219°
2026-05-06 02:36 -43.48689 172.53784 111 ft 20 kts 220°
2026-05-06 02:36 -43.48801 172.53653 113 ft 22 kts 220°
2026-05-06 02:37 -43.48893 172.53551 114 ft 16 kts 208°
2026-05-06 02:37 -43.48984 172.53458 114 ft 17 kts 221°
2026-05-06 02:37 -43.49085 172.53338 115 ft 21 kts 220°
2026-05-06 02:37 -43.49197 172.53212 116 ft 21 kts 219°
2026-05-06 02:38 -43.49309 172.53083 123 ft 21 kts 220°
2026-05-06 02:38 -43.49420 172.52953 127 ft 21 kts 220°
2026-05-06 02:38 -43.49534 172.52820 128 ft 22 kts 220°
2026-05-06 02:38 -43.49657 172.52679 125 ft 24 kts 220°
2026-05-06 02:39 -43.49771 172.52548 126 ft 10 kts 223°
2026-05-06 02:39 -43.49795 172.52447 132 ft 13 kts 272°
2026-05-06 02:39 -43.49787 172.52306 124 ft 17 kts 276°
2026-05-06 02:39 -43.49737 172.52247 125 ft 8 kts 24°
2026-05-06 02:40 -43.49674 172.52314 124 ft 21 kts 40°
2026-05-06 02:40 -43.49325 172.52718 124 ft 106 kts 40°
2026-05-06 02:40 -43.48598 172.53554 116 ft 161 kts 39°
2026-05-06 02:40 -43.47671 172.54613 320 ft 177 kts 39°
2026-05-06 02:41 -43.46722 172.55692 794 ft 176 kts 34°
2026-05-06 02:41 -43.46373 172.55994 974 ft 174 kts 27°